STARLINK-1454, 45671

Orbit data source: Space-Track

STARLINK-1454, 45671 is a payload satellite owned by SpaceX/Seattle (US) in LEO that was launched on Thu, 04 Jun 2020 UTC via an FALCON 9 launch vehicle from the Air Force Eastern Test Range (AFETR). Payload-class satellites include a variety of spacecraft equipped with specific instruments for various scientific and technological missions. These include communications satellites like Starlink; space stations such as the ISS; scientific satellites like the Hubble; Earth observation satellites from companies like Planet Labs, Umbra, and HawkEye 360; GPS; miniature CubeSats for education and research; and military/defense satellites.

Loading next visibility...
Identifier
45671, 2020-035Q
Orbit
LEO
Country
Flag of USUS
Related business
Manufacturer
SpaceX/Seattle
Mission
Partially operational Commercial Communications
Bus & Motor
STARLINK, Unknown motor
Mass
260 kg wet, ~248 kg dry
Launch date (UTC)
2020-06-04 (6 years ago)
Launch vehicle
FALCON 9
Launch site
Air Force Eastern Test Range (AFETR)
Object type
Payload
Rocket body
Debris
Shape & HBR
Box + 1 Pan, 10.1 m
Radar Cross Section
13.562 m², Large (>1 m²)

Expand to show TLE details & history
Last TLE update: 5 hours ago

TLE from 5 hours ago
0 STARLINK-1454
1 45671U 20035Q   26124.47821855  .00101715  00000-0  11472-2 0  9990
2 45671  53.0439 142.4483 0004511 340.7684  19.3158 15.61728923327607
Epoch: 2026-05-04T11:28Z
TLE epoch observation values (Epoch: 2026-05-04T11:28:38.082Z)
Latitude
-0.00003°
Longitude
107.92276°
Altitude
380.684 km
Speed
7.684 km/s
True Right ascension
09h 29m 47s
True Declination
0° 00' 00"
Sunlit
Object was in daylight at epoch
Visualization orbit readout
Latitude
Unknown
Longitude
Unknown
Altitude
Unknown
Speed
Unknown
Apparent Right ascension
Unknown
Apparent Declination
Unknown
Sunlit
N/A
Visualization observer readout
Local Sidereal Time
23:51:17
Azimuth
Unknown
Elevation
Unknown
Doppler factor
Unknown
Orbital elements
Apogee altitude
385.992 km
Perigee altitude
379.892 km
Semi-major axis
6,761.079 km
Eccentricity
0.00045
Inclination
53.0439°
RAAN
142.4483°
Arg. of periapsis
340.7684°
True anomaly
19.33291°
Mean anomaly
19.3158°
Eccentric anomaly
19.32435°
Mean motion
3.90408 °/min
Orbital period
92.21 mins
BSTAR
0.0011472
Loading maneuver chart data...
Computing Atmospheric mass density...
Loading historical data...
Loading historical data...
Loading historical data...
Loading historical data...
Loading historical data...
Loading historical data...
Loading historical data...

Documentation

Showing up to 5 results
|